Regional Weather Roundup
Issued by NWS Wakefield, VA

Home | Current Version | Previous Version | Text Only | Print | Product List | Glossary Off
Versions: 1 2 3 4 5 6 7 8 9 10 11 12 13 14 15 16 17 18 19 20 21 22 23 24 25 26 27 28 29 30 31 32 33 34 35 36 37 38 39 40 41 42 43 44 45 46 47 48 49 50

000
ASUS41 KAKQ 260415
RWRAKQ

REGIONAL WEATHER ROUNDUP
NATIONAL WEATHER SERVICE WAKEFIELD VA
1200 AM EDT SUN APR 26 2015

Note: "fair" indicates few or no clouds below 12,000 feet with no
significant weather and/or obstructions to visibility. * = Denotes
station may not report precipitation (e.g., rain,snow,etc.),
thunder or fog.

VAZ042-051-052>054-056-260500-
NORTHERN VIRGINIA

CITY           SKY/WX    TMP DP  RH WIND       PRES   REMARKS
WASH NATIONAL  LGT RAIN  45  40  82 N6        29.74F
DULLES         LGT RAIN  40  38  93 N6        29.73F
FORT BELVOIR   LGT RAIN  43  39  87 NW2       29.73F
QUANTICO       LGT RAIN  43  39  86 N7        29.75F
FREDERICKSBRG* CLOUDY    43  43 100 N3        29.73F
STAFFORD*      DRIZZLE   41  32  70 CALM      29.78F
WARRENTON      LGT RAIN  42  42  99 NE3       29.73S
CULPEPER*      DRIZZLE   43  41  93 CALM      29.74F
MANASSAS*      CLOUDY    41  41 100 NW3       29.74F
LEESBURG*      LGT RAIN  41  41 100 CALM      29.74F
WINCHESTER     DRIZZLE   41  36  81 CALM      29.72F
FRONT ROYAL*   CLOUDY    37  37 100 CALM      29.71F
LURAY*         CLOUDY    43  43 100 N5        29.70F
$$

VAZ048-049-060>072-079>083-260500-
CENTRAL AND SOUTH CENTRAL VIRGINIA

CITY           SKY/WX    TMP DP  RH WIND       PRES   REMARKS
RICHMOND       CLOUDY    46  43  89 N7        29.71R
CHESTERFIELD*  CLOUDY    46  34  61 NE6       29.71S
PETERSBURG*    CLOUDY    47  46  95 NE7       29.69F
HANOVER        CLOUDY    44  42  93 N5        29.72S
TAPPAHANNOCK*  CLOUDY    46  43  89 CALM      29.72S
QUINTON*       CLOUDY    45  44  97 NW3       29.71R
CHARLOTTSVILLE CLOUDY    41  39  93 NE7       29.72F
GORDONSVILLE*  CLOUDY    41  40  96 NE5       29.72S FOG
ORANGE*        CLOUDY    41  41 100 N3        29.74F FOG
LOUISA*        CLOUDY    43  41  93 NE6       29.71F FOG
BUMPASS*       CLOUDY    41  40  95 N5        29.72F
FARMVILLE*     CLOUDY    44  44 100 NE6       29.69S
CREWE*         CLOUDY    44  42  95 CALM      29.68S
FORT PICKETT*  CLOUDY    44  44  98 N7        29.68R
CHASE CITY*    CLOUDY    46  46 100 N5        29.68S
CLARKSVILLE*   CLOUDY    45  45 100 N3        29.66F
SOUTH HILL*    CLOUDY    43  42  97 NE3       29.72F
LAWRENCEVILLE* CLOUDY    44  44  99 CALM      29.66F
EMPORIA*       DRIZZLE   45  45 100 N6        29.70S
$$

VAZ088>098-260500-
SOUTHEAST VIRGINIA

CITY           SKY/WX    TMP DP  RH WIND       PRES   REMARKS
NORFOLK        LGT RAIN  48  45  89 N13       29.69R FOG
VIRGINIA BEACH LGT RAIN  49  45  86 NE14      29.67R FOG
NORFOLK NAVAL  LGT RAIN  51  46  83 NE14      29.69R
WEST POINT*    CLOUDY    47  45  91 NW3       29.73R
SALUDA*        CLOUDY    46  44  95 NE3       29.69S
NEWPORT NEWS   LGT RAIN  50  45  83 N6        29.70R
LANGLEY AFB    CLOUDY    48  46  93 NE8       29.69F
FORT EUSTIS    LGT RAIN  46  46 100 E6        29.64F
WILLIAMSBURG*  CLOUDY    48  48 100 CALM      29.68F
HR EXEC AP*    CLOUDY    48  45  87 NE5       29.69S
FRANKLIN*      DRIZZLE   46  45  98 N6        29.69R
WAKEFIELD      LGT RAIN  47  45  93 NE7       29.69F FOG
$$

VAZ020-022-025-037-045-260500-
WEST CENTRAL AND SOUTHWEST VIRGINIA

CITY           SKY/WX    TMP DP  RH WIND       PRES   REMARKS
STAUNTON*      CLOUDY    41  39  91 CALM      29.71F
WAYNESBORO*    CLOUDY    39  38  99 CALM      29.68F
HOT SPRINGS VA SNOW      34  34 100 E3        29.60F VSB<1/4
LYNCHBURG      CLOUDY    41  40  96 N7        29.71R
DANVILLE       CLOUDY    45  42  89 N9        29.68F
SOUTH BOSTON*  CLOUDY    44  43  96 N5        29.69R
MARTINSVILLE   CLOUDY    44  44 100 NE3       29.70S FOG
ROANOKE        LGT RAIN  42  41  96 E8        29.66F
BLACKSBURG     FOG       38  38  99 SE5       29.66F VSB 3/4
DUBLIN*        FOG       41  41 100 CALM      29.65F VSB 1
MARION*        CLOUDY    46  44  93 SE6       29.65R FOG
HILLSVILLE*    CLOUDY    46  46  99 S6        29.62S FOG
RICHLANDS*     LGT RAIN  55  53  91 E3        29.57S
WISE*          TSTM      55  55 100 N8G17     29.56F VSB 1/4
ABINGDON*      CLOUDY    58  50  74 CALM      29.56S
$$

MDZ021>025-VAZ099-100-260500-
SOUTHERN MARYLAND AND THE DELMARVA PENINSULA

CITY           SKY/WX    TMP DP  RH WIND       PRES   REMARKS
PATUXENT RIVER CLOUDY    45  41  86 NE10      29.72R
BAY BRIDGE APT LGT RAIN N/A N/A N/A CALM      29.73F
LEONARDTOWN    CLOUDY    43  41  93 CALM      29.74S
DOVER          CLOUDY    46  42  86 W7        29.67F
GEORGETOWN     RAIN      43  39  86 CALM      29.74F
EASTON         LGT RAIN  45  45 100 NE7       29.77F
CAMBRIDGE      CLOUDY    45  41  87 N6        29.71F
SALISBURY      LGT RAIN  44  42  93 N6        29.72F
OCEAN CITY     LGT RAIN  44  42  93 N7        29.73F
WALLOPS ISLAND LGT RAIN  44  44 100 NE8       29.70F
ACCOMACK*      RAIN      43  34  70 NE8       29.69F
$$

NCZ012>017-030>032-260500-
NORTH CENTRAL AND EASTERN NORTH CAROLINA

CITY           SKY/WX    TMP DP  RH WIND       PRES   REMARKS
ROANOKE RAPIDS DRIZZLE   45  45 100 N12       29.67S
RALEIGH        FOG       49  48  97 N7        29.66S VSB 1/2
ELIZABETH CITY CLOUDY    51  49  92 NE13      29.64S
AHOSKIE*       DRIZZLE   47  46  97 N6        29.66F
EDENTON*       CLOUDY    50  49  96 NE6       29.63R FOG
CURRITUCK*     LGT RAIN  50  48  93 NE9       29.62F
KILL DEVIL HLS DRIZZLE   53  53 100 E3        29.59F
MANTEO         LGT RAIN  53  53  99 E10       29.59F
CAPE HATTERAS  CLOUDY    57  57 100 NE6       29.56F
TARBORO*       LGT RAIN  52  51  96 N6        29.65S
GOLDSBORO      NOT AVBL
WASHINGTON     CLOUDY    53  52  96 NE5       29.63R FOG
GREENVILLE     CLOUDY    55  54  94 NE5       29.66R FOG
NEW BERN       CLOUDY    60  57  89 CALM      29.61S
WILMINGTON     CLOUDY    68  66  93 W7        29.61S
$$

VAZ048-260500-
ELSEWHERE

CITY           SKY/WX    TMP DP  RH WIND       PRES   REMARKS
HARRISBURG PA  CLOUDY    48  32  53 CALM      29.69F
BALTIMORE      LGT RAIN  42  39  89 SW9       29.70F
ANNAPOLIS      LGT RAIN  44  40  85 CALM      29.73F
ANDREWS AFB    LGT RAIN  41  41 100 N6        29.72F
PHILADELPHIA   CLOUDY    50  36  58 SW9       29.72S
HENDERSON NC   CLOUDY    45  43  95 NE7       29.66F FOG
GREENSBORO     DRIZZLE   45  44  97 NE10      29.65F FOG
ROCKY MOUNT    CLOUDY    52  51  97 N10       29.64S FOG
$$

VAZ100-260500-
MARINE

STATION/POSITION TIME  TEMP    WIND        PRES    WAVE   SWELL
                       AIR SEA DIR/SP/G            HT/PER HT/PER
                 (UTC) (F)     (DEG/KT/KT) (MB)    (FT/S) (FT/S)
BRANDYWINE LGT   0306   46 51  280/ 16/ 18 1006.8R
CAPE MAY NJ      0300   47 56  270/ 14/ 17 1006.4R
LEWES DE         0300   45 51  270/  8/ 11 1007.0R
15NM E FENWICK I 0350   44 47              1006.7R   1/11
OCEAN-CITY-INLET 0306   45 51   10/  5/  7 1006.3R
WACHAPREAGUE VA  0300   45 55  340/  3/  6 1006.8R
THOMAS POINT MD  0400   45 52   20/  5/  6 1007.5F
GOOSES REEF MD   0400   45 53   30/ 12/ 16   N/A
COVE POINT MD    0300   45      20/  8/ 10 1008.0R
SOLOMONS ISLAND  0312      54                N/A
BISHOPS HEAD MD  0300   45 54  340/  5/  6 1006.7F
PINEY POINT MD   0300           50/  4/  5   N/A
CAMBRIDGE MD     0300   47 58  330/  9/ 10 1007.3S
LEWISETTA VA     0300   47 56              1006.1F
RAPPAHANNOCK LGT 0300           60/ 11/ 12 1006.0F
YORK RVR RNG VA  0300   48      80/ 13/ 15 1004.3F
YORKTOWN VA      0312   48 59   60/ 10/ 12 1005.3S
JAMESTOWN VA     0400   47 63   80/  8/ 12 1003.6F
DOMINION TERM VA 0300   48      50/  7/ 11 1005.2R
KIPTOPEKE VA     0300      62  360/ 11/ 16   N/A
CHES BAY BRIDGE  0306   48 54   20/ 15/ 17 1005.3R
CAPE HENRY VA    0300   47      50/ 17/ 19 1003.6R
CHESAPEAKE LGHT  0300   47      60/ 16/ 17 1005.1F
WILLOUBY STN VA  0300   48      60/ 14/ 16 1005.3R
S CRANEY ISL VA  0300           30/ 10/ 12 1005.3R
CAPE HENRY BUOY  0328      51                N/A     3/ 4
1ST LANDING BUOY 0400                      1005.2R   3/ 3
OFFSHORE WE BUOY 0311      50                N/A     3/ 6   2/ 6
64NM E OF VA BCH 0350   55 59   70/ 17/ 19 1002.2F   3/ 4   2/ 7
DUCK PIER NC     0300   52 54   60/ 14/ 15 1002.1F
44056 DUCK FRF   0311      54                N/A     4/ 4
OREGON INLET NC  0300   53 58   60/ 11/ 13 1002.2F
HATTERAS NC      0306   60 65   50/  5/  9 1000.9F
DIAMOND SHLS NC  0350   66 76  360/  8/ 10 1000.6F   4/ 6   3/ 6
CAPE LOOKOUT NC  0400   66     260/ 12/ 15 1001.1F
$$



USA.gov is the U.S. government's official web portal to all federal, state and local government web resources and services.